Location: Newark
(27.9675°N, 86.8869°E)
Time: 20:45:03
(UTC+00:00)

Altair - Pass Details

Date: 25 October 2019
Orbit: 1502 x 1682 km, 47.2° (Epoch: 20 November)

Event Time Altitude Azimuth Distance (km) Brightness Sun altitude
Rises 10:41:08 0° 311° (NW) 4,855 10.6 10.4°
Reaches altitude 10° 10:44:14 10° 311° (NW) 3,887 10.1 9.8°
Maximum altitude 10:54:17 89° 40° (NE) 1,676 7.9 7.7°
Drops below altitude 10° 11:04:29 10° 133° (SE) 3,934 9.4 5.5°
Sets 11:07:38 0° 133° (SE) 4,916 9.8 4.9°
